Time,TemperatureF,DewpointF,PressureIn,WindDirection,WindDirectionDegrees,WindSpeedMPH,WindSpeedGustMPH,Humidity,HourlyPrecipIn,Conditions,Clouds,dailyrainin,SoftwareType,DateUTC
2013-03-19 00:01:00,28.5,13.1,29.97,NNW,327,0.0,1.0,52,0.00,,,0.00,WeatherCatV1.14B232,2013-03-19 05:01:00,
2013-03-19 00:06:00,28.5,13.1,29.97,NNW,327,1.0,3.0,52,0.00,,,0.00,WeatherCatV1.14B232,2013-03-19 05:06:00,
2013-03-19 00:11:00,28.7,13.3,29.97,NW,325,0.0,2.0,52,0.00,,,0.00,WeatherCatV1.14B232,2013-03-19 05:11:00,
2013-03-19 00:16:00,28.8,13.4,29.99,NW,305,1.0,4.0,52,0.00,,,0.00,WeatherCatV1.14B232,2013-03-19 05:16:00,
2013-03-19 00:21:00,29.0,13.2,29.99,NW,309,1.0,2.0,51,0.00,,,0.00,WeatherCatV1.14B232,2013-03-19 05:21:00,
2013-03-19 00:26:00,29.1,12.8,29.99,NW,306,2.0,2.0,50,0.00,,,0.00,WeatherCatV1.14B232,2013-03-19 05:26:00,
2013-03-19 00:31:00,29.3,13.0,29.99,NW,306,0.0,2.0,50,0.00,,,0.00,WeatherCatV1.14B232,2013-03-19 05:31:00,
2013-03-19 00:36:00,29.3,13.0,29.99,NW,306,0.0,1.0,50,0.00,,,0.00,WeatherCatV1.14B232,2013-03-19 05:36:00,
2013-03-19 00:41:00,29.3,13.4,29.99,NW,306,0.0,0.0,51,0.00,,,0.00,WeatherCatV1.14B232,2013-03-19 05:41:00,
2013-03-19 00:46:00,29.3,13.9,29.99,NW,306,0.0,0.0,52,0.00,,,0.00,WeatherCatV1.14B232,2013-03-19 05:46:00,
2013-03-19 00:51:00,29.1,14.1,29.99,NW,306,0.0,0.0,53,0.00,,,0.00,WeatherCatV1.14B232,2013-03-19 05:51:00,
2013-03-19 00:56:00,29.0,14.0,29.99,NW,306,0.0,1.0,53,0.00,,,0.00,WeatherCatV1.14B232,2013-03-19 05:56:00,
2013-03-19 01:01:00,28.8,13.9,29.98,NW,306,0.0,1.0,53,0.00,,,0.00,WeatherCatV1.14B232,2013-03-19 06:01:00,
2013-03-19 01:06:00,28.8,13.9,29.98,NW,306,0.0,1.0,53,0.00,,,0.00,WeatherCatV1.14B232,2013-03-19 06:06:00,
2013-03-19 01:11:00,28.7,13.8,29.98,NW,306,0.0,1.0,53,0.00,,,0.00,WeatherCatV1.14B232,2013-03-19 06:11:00,
2013-03-19 01:16:00,28.7,13.8,29.98,NW,306,0.0,0.0,53,0.00,,,0.00,WeatherCatV1.14B232,2013-03-19 06:16:00,
2013-03-19 01:21:00,28.7,13.8,29.98,NW,306,0.0,0.0,53,0.00,,,0.00,WeatherCatV1.14B232,2013-03-19 06:21:00,
2013-03-19 01:26:00,28.5,13.6,29.98,NW,304,0.0,3.0,53,0.00,,,0.00,WeatherCatV1.14B232,2013-03-19 06:26:00,
2013-03-19 01:31:00,28.5,14.0,29.98,NW,304,0.0,1.0,54,0.00,,,0.00,WeatherCatV1.14B232,2013-03-19 06:31:00,
2013-03-19 01:36:00,28.5,14.0,29.98,NW,304,0.0,0.0,54,0.00,,,0.00,WeatherCatV1.14B232,2013-03-19 06:36:00,
2013-03-19 01:41:00,28.5,14.0,29.98,NW,304,0.0,0.0,54,0.00,,,0.00,WeatherCatV1.14B232,2013-03-19 06:41:00,
2013-03-19 01:46:00,28.5,14.0,29.98,NW,304,1.0,1.0,54,0.00,,,0.00,WeatherCatV1.14B232,2013-03-19 06:46:00,
2013-03-19 01:51:00,28.5,14.0,29.98,NW,304,0.0,1.0,54,0.00,,,0.00,WeatherCatV1.14B232,2013-03-19 06:51:00,
2013-03-19 01:56:00,28.5,14.0,29.98,NW,304,0.0,0.0,54,0.00,,,0.00,WeatherCatV1.14B232,2013-03-19 06:56:00,
2013-03-19 02:01:00,28.4,13.9,30.00,NW,304,0.0,0.0,54,0.00,,,0.00,WeatherCatV1.14B232,2013-03-19 07:01:00,
2013-03-19 02:06:00,28.4,13.9,30.00,NW,304,0.0,0.0,54,0.00,,,0.00,WeatherCatV1.14B232,2013-03-19 07:06:00,
2013-03-19 02:11:00,28.2,13.7,30.00,NW,304,0.0,0.0,54,0.00,,,0.00,WeatherCatV1.14B232,2013-03-19 07:11:00,
2013-03-19 02:16:00,28.2,13.7,30.00,NW,304,0.0,0.0,54,0.00,,,0.00,WeatherCatV1.14B232,2013-03-19 07:16:00,
2013-03-19 02:21:00,28.2,13.7,30.00,NW,304,0.0,0.0,54,0.00,,,0.00,WeatherCatV1.14B232,2013-03-19 07:21:00,
2013-03-19 02:26:00,28.2,13.7,30.00,NW,304,0.0,0.0,54,0.00,,,0.00,WeatherCatV1.14B232,2013-03-19 07:26:00,
2013-03-19 02:31:00,28.1,13.6,30.00,NW,304,0.0,0.0,54,0.00,,,0.00,WeatherCatV1.14B232,2013-03-19 07:31:00,
2013-03-19 02:36:00,28.1,14.0,30.00,NW,304,0.0,0.0,55,0.00,,,0.00,WeatherCatV1.14B232,2013-03-19 07:36:00,
2013-03-19 02:41:00,28.1,14.0,30.00,NW,304,0.0,1.0,55,0.00,,,0.00,WeatherCatV1.14B232,2013-03-19 07:41:00,
2013-03-19 02:46:00,28.1,14.0,30.00,NW,304,0.0,2.0,55,0.00,,,0.00,WeatherCatV1.14B232,2013-03-19 07:46:00,
2013-03-19 02:51:00,28.1,14.0,30.00,NW,304,0.0,0.0,55,0.00,,,0.00,WeatherCatV1.14B232,2013-03-19 07:51:00,
2013-03-19 02:56:00,28.1,14.0,30.00,NW,304,1.0,1.0,55,0.00,,,0.00,WeatherCatV1.14B232,2013-03-19 07:56:00,
2013-03-19 03:01:00,27.9,14.3,30.02,NW,304,0.0,1.0,56,0.00,,,0.00,WeatherCatV1.14B232,2013-03-19 08:01:00,
2013-03-19 03:06:00,27.9,14.7,30.02,NW,304,0.0,3.0,57,0.00,,,0.00,WeatherCatV1.14B232,2013-03-19 08:06:00,
2013-03-19 03:11:00,27.8,15.0,30.02,NW,308,2.0,4.0,58,0.00,,,0.00,WeatherCatV1.14B232,2013-03-19 08:11:00,
2013-03-19 03:16:00,27.6,14.8,30.02,NW,310,0.0,5.0,58,0.00,,,0.00,WeatherCatV1.14B232,2013-03-19 08:16:00,
2013-03-19 03:21:00,27.3,14.9,30.02,NW,312,2.0,3.0,59,0.00,,,0.00,WeatherCatV1.14B232,2013-03-19 08:21:00,
2013-03-19 03:26:00,27.2,15.2,30.02,NW,312,0.0,2.0,60,0.00,,,0.00,WeatherCatV1.14B232,2013-03-19 08:26:00,
2013-03-19 03:31:00,26.9,14.9,30.02,NW,313,3.0,5.0,60,0.00,,,0.00,WeatherCatV1.14B232,2013-03-19 08:31:00,
2013-03-19 03:36:00,26.6,15.0,30.02,NW,313,1.0,2.0,61,0.00,,,0.00,WeatherCatV1.14B232,2013-03-19 08:36:00,
2013-03-19 03:41:00,26.4,14.4,30.02,NW,313,0.0,1.0,60,0.00,,,0.00,WeatherCatV1.14B232,2013-03-19 08:41:00,
2013-03-19 03:46:00,26.3,14.3,30.01,NW,313,0.0,2.0,60,0.00,,,0.00,WeatherCatV1.14B232,2013-03-19 08:46:00,
2013-03-19 03:51:00,26.0,14.0,30.01,NW,313,0.0,1.0,60,0.00,,,0.00,WeatherCatV1.14B232,2013-03-19 08:51:00,
2013-03-19 03:56:00,25.8,13.9,30.01,NW,313,0.0,2.0,60,0.00,,,0.00,WeatherCatV1.14B232,2013-03-19 08:56:00,
2013-03-19 04:02:00,25.7,13.8,30.01,NW,313,2.0,4.0,60,0.00,,,0.00,WeatherCatV1.14B232,2013-03-19 09:02:00,
2013-03-19 04:07:00,25.6,14.0,30.01,NW,313,1.0,4.0,61,0.00,,,0.00,WeatherCatV1.14B232,2013-03-19 09:07:00,
2013-03-19 04:12:00,25.6,14.0,30.01,NW,313,2.0,4.0,61,0.00,,,0.00,WeatherCatV1.14B232,2013-03-19 09:12:00,
2013-03-19 04:17:00,25.3,13.8,30.02,NW,315,2.0,4.0,61,0.00,,,0.00,WeatherCatV1.14B232,2013-03-19 09:17:00,
2013-03-19 04:22:00,25.1,13.2,30.02,NNW,327,3.0,5.0,60,0.00,,,0.00,WeatherCatV1.14B232,2013-03-19 09:22:00,
2013-03-19 04:27:00,25.0,13.1,30.02,North,349,2.0,5.0,60,0.00,,,0.00,WeatherCatV1.14B232,2013-03-19 09:27:00,
2013-03-19 04:32:00,24.7,12.8,30.01,NNW,341,0.0,5.0,60,0.00,,,0.00,WeatherCatV1.14B232,2013-03-19 09:32:00,
2013-03-19 04:37:00,24.5,12.6,30.01,NNW,341,2.0,4.0,60,0.00,,,0.00,WeatherCatV1.14B232,2013-03-19 09:37:00,
2013-03-19 04:42:00,24.4,12.9,30.01,NNW,342,0.0,2.0,61,0.00,,,0.00,WeatherCatV1.14B232,2013-03-19 09:42:00,
2013-03-19 04:47:00,24.2,12.7,30.01,NNW,341,1.0,3.0,61,0.00,,,0.00,WeatherCatV1.14B232,2013-03-19 09:47:00,
2013-03-19 04:52:00,24.1,13.0,30.01,NNW,341,0.0,2.0,62,0.00,,,0.00,WeatherCatV1.14B232,2013-03-19 09:52:00,
2013-03-19 04:57:00,23.9,12.8,30.01,NNW,341,0.0,1.0,62,0.00,,,0.00,WeatherCatV1.14B232,2013-03-19 09:57:00,
2013-03-19 05:02:00,23.8,12.7,30.01,NNW,341,0.0,1.0,62,0.00,,,0.00,WeatherCatV1.14B232,2013-03-19 10:02:00,
2013-03-19 05:07:00,23.6,12.5,30.01,NNW,341,0.0,0.0,62,0.00,,,0.00,WeatherCatV1.14B232,2013-03-19 10:07:00,
2013-03-19 05:12:00,23.5,12.8,30.01,NNW,341,1.0,1.0,63,0.00,,,0.00,WeatherCatV1.14B232,2013-03-19 10:12:00,
2013-03-19 05:17:00,23.3,12.6,30.00,NNW,341,0.0,0.0,63,0.00,,,0.00,WeatherCatV1.14B232,2013-03-19 10:17:00,
2013-03-19 05:22:00,23.2,12.9,30.00,NNW,341,0.0,0.0,64,0.00,,,0.00,WeatherCatV1.14B232,2013-03-19 10:22:00,
2013-03-19 05:27:00,23.0,12.7,30.00,NNW,341,0.0,1.0,64,0.00,,,0.00,WeatherCatV1.14B232,2013-03-19 10:27:00,
2013-03-19 05:32:00,22.9,12.6,30.02,NNW,341,0.0,0.0,64,0.00,,,0.00,WeatherCatV1.14B232,2013-03-19 10:32:00,
2013-03-19 05:37:00,22.7,12.4,30.02,NNW,341,0.0,0.0,64,0.00,,,0.00,WeatherCatV1.14B232,2013-03-19 10:37:00,
2013-03-19 05:42:00,22.5,12.2,30.02,NNW,341,0.0,1.0,64,0.00,,,0.00,WeatherCatV1.14B232,2013-03-19 10:42:00,
2013-03-19 05:47:00,22.5,12.5,30.03,NNW,342,0.0,0.0,65,0.00,,,0.00,WeatherCatV1.14B232,2013-03-19 10:47:00,
2013-03-19 05:52:00,22.4,12.1,30.03,NNW,341,0.0,0.0,64,0.00,,,0.00,WeatherCatV1.14B232,2013-03-19 10:52:00,
2013-03-19 05:57:00,22.4,12.4,30.03,NNW,341,0.0,0.0,65,0.00,,,0.00,WeatherCatV1.14B232,2013-03-19 10:57:00,
2013-03-19 06:02:00,22.4,12.1,30.04,NNW,341,0.0,0.0,64,0.00,,,0.00,WeatherCatV1.14B232,2013-03-19 11:02:00,
2013-03-19 06:07:00,22.2,11.9,30.04,NNW,341,0.0,0.0,64,0.00,,,0.00,WeatherCatV1.14B232,2013-03-19 11:07:00,
2013-03-19 06:12:00,22.2,11.9,30.04,NNW,341,0.0,0.0,64,0.00,,,0.00,WeatherCatV1.14B232,2013-03-19 11:12:00,
2013-03-19 06:17:00,22.2,11.9,30.05,NNW,342,0.0,0.0,64,0.00,,,0.00,WeatherCatV1.14B232,2013-03-19 11:17:00,
2013-03-19 06:22:00,22.1,11.8,30.05,NNW,341,0.0,0.0,64,0.00,,,0.00,WeatherCatV1.14B232,2013-03-19 11:22:00,
2013-03-19 06:27:00,21.9,12.0,30.05,NNW,341,0.0,0.0,65,0.00,,,0.00,WeatherCatV1.14B232,2013-03-19 11:27:00,
2013-03-19 06:32:00,21.8,11.9,30.06,NNW,341,0.0,0.0,65,0.00,,,0.00,WeatherCatV1.14B232,2013-03-19 11:32:00,
2013-03-19 06:37:00,21.6,11.7,30.06,NNW,342,0.0,0.0,65,0.00,,,0.00,WeatherCatV1.14B232,2013-03-19 11:37:00,
2013-03-19 06:42:00,21.6,11.7,30.06,NNW,341,0.0,0.0,65,0.00,,,0.00,WeatherCatV1.14B232,2013-03-19 11:42:00,
2013-03-19 06:47:00,21.6,11.7,30.06,NNW,342,0.0,0.0,65,0.00,,,0.00,WeatherCatV1.14B232,2013-03-19 11:47:00,
2013-03-19 06:52:00,21.6,11.7,30.06,NNW,342,0.0,0.0,65,0.00,,,0.00,WeatherCatV1.14B232,2013-03-19 11:52:00,
2013-03-19 06:57:00,21.6,11.7,30.06,NNW,341,0.0,0.0,65,0.00,,,0.00,WeatherCatV1.14B232,2013-03-19 11:57:00,
2013-03-19 07:02:00,21.8,11.5,30.06,NNW,342,0.0,0.0,64,0.00,,,0.00,WeatherCatV1.14B232,2013-03-19 12:02:00,
2013-03-19 07:07:00,21.9,11.6,30.06,NNW,341,0.0,1.0,64,0.00,,,0.00,WeatherCatV1.14B232,2013-03-19 12:07:00,
2013-03-19 07:12:00,21.9,11.6,30.06,NNW,341,0.0,1.0,64,0.00,,,0.00,WeatherCatV1.14B232,2013-03-19 12:12:00,
2013-03-19 07:17:00,21.9,11.3,30.06,NNW,342,0.0,0.0,63,0.00,,,0.00,WeatherCatV1.14B232,2013-03-19 12:17:00,
2013-03-19 07:22:00,22.1,11.5,30.06,NNW,342,0.0,0.0,63,0.00,,,0.00,WeatherCatV1.14B232,2013-03-19 12:22:00,
2013-03-19 07:27:00,22.1,11.1,30.06,NNW,342,0.0,1.0,62,0.00,,,0.00,WeatherCatV1.14B232,2013-03-19 12:27:00,
2013-03-19 07:32:00,22.2,11.2,30.06,NNW,342,0.0,1.0,62,0.00,,,0.00,WeatherCatV1.14B232,2013-03-19 12:32:00,
2013-03-19 07:37:00,22.2,11.2,30.06,NNW,342,0.0,0.0,62,0.00,,,0.00,WeatherCatV1.14B232,2013-03-19 12:37:00,
2013-03-19 07:46:00,22.2,11.2,30.08,NNW,342,0.0,0.0,62,0.00,,,0.00,WeatherCatV1.14B232,2013-03-19 12:46:00,
2013-03-19 07:51:00,22.4,11.4,30.08,NNW,341,0.0,0.0,62,0.00,,,0.00,WeatherCatV1.14B232,2013-03-19 12:51:00,
2013-03-19 07:56:00,22.4,11.7,30.08,NNW,341,0.0,0.0,63,0.00,,,0.00,WeatherCatV1.14B232,2013-03-19 12:56:00,
2013-03-19 08:01:00,22.7,11.7,30.08,NNW,342,0.0,0.0,62,0.00,,,0.00,WeatherCatV1.14B232,2013-03-19 13:01:00,
2013-03-19 08:24:00,23.6,10.6,30.09,NNW,341,0.0,0.0,57,0.00,,,0.00,WeatherCatV1.14B232,2013-03-19 13:24:00,
2013-03-19 08:29:00,23.6,9.8,30.10,NNW,341,0.0,0.0,55,0.00,,,0.00,WeatherCatV1.14B232,2013-03-19 13:29:00,
2013-03-19 08:34:00,23.8,10.0,30.10,NNW,342,0.0,0.0,55,0.00,,,0.00,WeatherCatV1.14B232,2013-03-19 13:34:00,
2013-03-19 08:39:00,24.1,10.3,30.10,NNW,341,0.0,0.0,55,0.00,,,0.00,WeatherCatV1.14B232,2013-03-19 13:39:00,
2013-03-19 08:44:00,24.2,9.6,30.10,NNW,342,0.0,0.0,53,0.00,,,0.00,WeatherCatV1.14B232,2013-03-19 13:44:00,
2013-03-19 08:49:00,24.4,9.3,30.10,NNW,341,0.0,2.0,52,0.00,,,0.00,WeatherCatV1.14B232,2013-03-19 13:49:00,
2013-03-19 08:54:00,24.5,9.0,30.10,NNW,341,0.0,0.0,51,0.00,,,0.00,WeatherCatV1.14B232,2013-03-19 13:54:00,
2013-03-19 08:59:00,24.5,8.6,30.10,NNW,341,0.0,0.0,50,0.00,,,0.00,WeatherCatV1.14B232,2013-03-19 13:59:00,
2013-03-19 09:04:00,24.4,8.5,30.10,NNW,341,0.0,0.0,50,0.00,,,0.00,WeatherCatV1.14B232,2013-03-19 14:04:00,
2013-03-19 09:09:00,24.4,8.5,30.10,NNW,342,2.0,2.0,50,0.00,,,0.00,WeatherCatV1.14B232,2013-03-19 14:09:00,
2013-03-19 09:14:00,24.2,8.3,30.10,NNW,341,0.0,0.0,50,0.00,,,0.00,WeatherCatV1.14B232,2013-03-19 14:14:00,
2013-03-19 09:19:00,24.4,8.9,30.10,NNW,341,1.0,2.0,51,0.00,,,0.00,WeatherCatV1.14B232,2013-03-19 14:19:00,
2013-03-19 09:24:00,24.7,10.0,30.10,NNW,342,2.0,2.0,53,0.00,,,0.00,WeatherCatV1.14B232,2013-03-19 14:24:00,
2013-03-19 09:29:00,24.5,9.4,30.11,North,351,1.0,3.0,52,0.00,,,0.00,WeatherCatV1.14B232,2013-03-19 14:29:00,
2013-03-19 09:34:00,24.5,9.4,30.11,North,351,0.0,2.0,52,0.00,,,0.00,WeatherCatV1.14B232,2013-03-19 14:34:00,
2013-03-19 09:39:00,24.4,9.8,30.11,North,351,0.0,0.0,53,0.00,,,0.00,WeatherCatV1.14B232,2013-03-19 14:39:00,
2013-03-19 09:44:00,24.5,9.8,30.12,North,351,0.0,1.0,53,0.00,,,0.00,WeatherCatV1.14B232,2013-03-19 14:44:00,
2013-03-19 09:49:00,24.8,10.1,30.12,North,351,2.0,2.0,53,0.00,,,0.00,WeatherCatV1.14B232,2013-03-19 14:49:00,
2013-03-19 09:54:00,25.1,10.4,30.12,North,351,0.0,1.0,53,0.00,,,0.00,WeatherCatV1.14B232,2013-03-19 14:54:00,
2013-03-19 09:59:00,25.4,10.7,30.12,North,351,0.0,0.0,53,0.00,,,0.00,WeatherCatV1.14B232,2013-03-19 14:59:00,
2013-03-19 10:04:00,26.0,11.7,30.12,North,351,0.0,1.0,54,0.00,,,0.00,WeatherCatV1.14B232,2013-03-19 15:04:00,
2013-03-19 10:09:00,26.1,10.9,30.12,North,351,0.0,0.0,52,0.00,,,0.00,WeatherCatV1.14B232,2013-03-19 15:09:00,
2013-03-19 10:14:00,26.6,11.8,30.13,North,351,0.0,0.0,53,0.00,,,0.00,WeatherCatV1.14B232,2013-03-19 15:14:00,
2013-03-19 10:19:00,27.3,12.0,30.13,North,350,0.0,0.0,52,0.00,,,0.00,WeatherCatV1.14B232,2013-03-19 15:19:00,
2013-03-19 10:24:00,27.6,11.4,30.13,North,351,0.0,1.0,50,0.00,,,0.00,WeatherCatV1.14B232,2013-03-19 15:24:00,
2013-03-19 10:29:00,27.8,11.6,30.13,NNW,342,0.0,2.0,50,0.00,,,0.00,WeatherCatV1.14B232,2013-03-19 15:29:00,
2013-03-19 10:34:00,27.9,11.2,30.13,NNW,342,0.0,2.0,49,0.00,,,0.00,WeatherCatV1.14B232,2013-03-19 15:34:00,
2013-03-19 10:39:00,28.2,11.5,30.13,NNW,342,2.0,2.0,49,0.00,,,0.00,WeatherCatV1.14B232,2013-03-19 15:39:00,
2013-03-19 10:44:00,28.4,11.7,30.13,NNW,342,0.0,0.0,49,0.00,,,0.00,WeatherCatV1.14B232,2013-03-19 15:44:00,
2013-03-19 10:49:00,28.7,12.0,30.13,NNW,338,3.0,3.0,49,0.00,,,0.00,WeatherCatV1.14B232,2013-03-19 15:49:00,
2013-03-19 10:54:00,29.0,11.3,30.13,WNW,294,1.0,3.0,47,0.00,,,0.00,WeatherCatV1.14B232,2013-03-19 15:54:00,
2013-03-19 10:59:00,29.3,11.6,30.13,WNW,294,0.0,1.0,47,0.00,,,0.00,WeatherCatV1.14B232,2013-03-19 15:59:00,
2013-03-19 11:04:00,29.4,11.7,30.13,WNW,294,0.0,0.0,47,0.00,,,0.00,WeatherCatV1.14B232,2013-03-19 16:04:00,
2013-03-19 11:09:00,29.5,11.3,30.13,WNW,294,0.0,0.0,46,0.00,,,0.00,WeatherCatV1.14B232,2013-03-19 16:09:00,
2013-03-19 11:14:00,30.0,11.8,30.14,SW,225,0.0,1.0,46,0.00,,,0.00,WeatherCatV1.14B232,2013-03-19 16:14:00,
2013-03-19 11:19:00,30.4,12.1,30.14,SW,225,0.0,2.0,46,0.00,,,0.00,WeatherCatV1.14B232,2013-03-19 16:19:00,
2013-03-19 11:24:00,30.6,11.8,30.14,SW,225,0.0,1.0,45,0.00,,,0.00,WeatherCatV1.14B232,2013-03-19 16:24:00,
2013-03-19 11:29:00,30.7,12.4,30.13,SW,225,1.0,3.0,46,0.00,,,0.00,WeatherCatV1.14B232,2013-03-19 16:29:00,
2013-03-19 11:34:00,31.3,11.9,30.13,SW,223,1.0,4.0,44,0.00,,,0.00,WeatherCatV1.14B232,2013-03-19 16:34:00,
2013-03-19 11:39:00,31.9,13.0,30.13,SW,222,1.0,3.0,45,0.00,,,0.00,WeatherCatV1.14B232,2013-03-19 16:39:00,
2013-03-19 11:44:00,32.5,12.5,30.13,SW,221,0.0,3.0,43,0.00,,,0.00,WeatherCatV1.14B232,2013-03-19 16:44:00,
2013-03-19 11:49:00,32.8,12.3,30.13,SW,221,1.0,3.0,42,0.00,,,0.00,WeatherCatV1.14B232,2013-03-19 16:49:00,
2013-03-19 11:54:00,33.1,12.5,30.13,SW,218,0.0,3.0,42,0.00,,,0.00,WeatherCatV1.14B232,2013-03-19 16:54:00,
2013-03-19 11:59:00,33.2,12.6,30.13,SSE,148,2.0,3.0,42,0.00,,,0.00,WeatherCatV1.14B232,2013-03-19 16:59:00,
2013-03-19 12:04:00,33.7,12.0,30.13,SSE,148,0.0,2.0,40,0.00,,,0.00,WeatherCatV1.14B232,2013-03-19 17:04:00,
2013-03-19 12:09:00,34.1,12.9,30.13,SSE,165,0.0,5.0,41,0.00,,,0.00,WeatherCatV1.14B232,2013-03-19 17:09:00,
2013-03-19 12:14:00,34.3,12.5,30.13,SSE,165,0.0,1.0,40,0.00,,,0.00,WeatherCatV1.14B232,2013-03-19 17:14:00,
2013-03-19 12:19:00,34.4,12.0,30.13,SSE,164,0.0,1.0,39,0.00,,,0.00,WeatherCatV1.14B232,2013-03-19 17:19:00,
2013-03-19 12:24:00,34.7,13.4,30.13,SSE,164,1.0,2.0,41,0.00,,,0.00,WeatherCatV1.14B232,2013-03-19 17:24:00,
2013-03-19 12:29:00,35.3,14.0,30.13,South,184,3.0,7.0,41,0.00,,,0.00,WeatherCatV1.14B232,2013-03-19 17:29:00,
2013-03-19 12:34:00,35.9,14.0,30.13,South,184,2.0,3.0,40,0.00,,,0.00,WeatherCatV1.14B232,2013-03-19 17:34:00,
2013-03-19 12:39:00,36.0,13.5,30.13,South,184,3.0,5.0,39,0.00,,,0.00,WeatherCatV1.14B232,2013-03-19 17:39:00,
2013-03-19 12:44:00,36.5,14.5,30.12,South,175,3.0,5.0,40,0.00,,,0.00,WeatherCatV1.14B232,2013-03-19 17:44:00,
2013-03-19 12:49:00,37.2,13.4,30.12,South,172,2.0,3.0,37,0.00,,,0.00,WeatherCatV1.14B232,2013-03-19 17:49:00,
2013-03-19 12:54:00,37.5,13.6,30.12,SSW,194,0.0,4.0,37,0.00,,,0.00,WeatherCatV1.14B232,2013-03-19 17:54:00,
2013-03-19 12:59:00,37.6,13.7,30.11,SSW,192,0.0,4.0,37,0.00,,,0.00,WeatherCatV1.14B232,2013-03-19 17:59:00,
2013-03-19 13:04:00,37.9,14.6,30.11,SSW,192,0.0,2.0,38,0.00,,,0.00,WeatherCatV1.14B232,2013-03-19 18:04:00,
2013-03-19 13:09:00,38.5,14.5,30.11,SSE,168,2.0,8.0,37,0.00,,,0.00,WeatherCatV1.14B232,2013-03-19 18:09:00,
2013-03-19 13:14:00,38.8,13.5,30.11,SSW,195,4.0,7.0,35,0.00,,,0.00,WeatherCatV1.14B232,2013-03-19 18:14:00,
2013-03-19 13:19:00,38.8,14.8,30.11,SSW,192,1.0,6.0,37,0.00,,,0.00,WeatherCatV1.14B232,2013-03-19 18:19:00,
2013-03-19 13:24:00,39.3,14.0,30.11,SSW,194,2.0,6.0,35,0.00,,,0.00,WeatherCatV1.14B232,2013-03-19 18:24:00,
2013-03-19 13:29:00,40.2,14.8,30.10,South,187,5.0,7.0,35,0.00,,,0.00,WeatherCatV1.14B232,2013-03-19 18:29:00,
2013-03-19 13:34:00,40.8,15.3,30.10,SSW,206,7.0,9.0,35,0.00,,,0.00,WeatherCatV1.14B232,2013-03-19 18:34:00,
2013-03-19 13:39:00,41.3,14.4,30.10,South,185,6.0,10.0,33,0.00,,,0.00,WeatherCatV1.14B232,2013-03-19 18:39:00,
2013-03-19 13:44:00,41.5,15.9,30.10,SSW,198,4.0,10.0,35,0.00,,,0.00,WeatherCatV1.14B232,2013-03-19 18:44:00,
2013-03-19 13:49:00,42.1,15.8,30.10,SSW,197,3.0,9.0,34,0.00,,,0.00,WeatherCatV1.14B232,2013-03-19 18:49:00,
2013-03-19 13:54:00,42.5,16.1,30.10,SW,217,2.0,3.0,34,0.00,,,0.00,WeatherCatV1.14B232,2013-03-19 18:54:00,
2013-03-19 13:59:00,42.8,16.4,30.10,South,170,5.0,12.0,34,0.00,,,0.00,WeatherCatV1.14B232,2013-03-19 18:59:00,
2013-03-19 14:04:00,42.9,15.8,30.10,South,190,9.0,11.0,33,0.00,,,0.00,WeatherCatV1.14B232,2013-03-19 19:04:00,
2013-03-19 14:09:00,43.2,16.1,30.10,SW,214,3.0,9.0,33,0.00,,,0.00,WeatherCatV1.14B232,2013-03-19 19:09:00,
2013-03-19 14:14:00,43.2,15.4,30.09,SSW,205,5.0,11.0,32,0.00,,,0.00,WeatherCatV1.14B232,2013-03-19 19:14:00,
2013-03-19 14:19:00,43.5,16.3,30.09,SSE,162,4.0,11.0,33,0.00,,,0.00,WeatherCatV1.14B232,2013-03-19 19:19:00,
2013-03-19 14:24:00,44.1,16.9,30.09,SW,224,8.0,13.0,33,0.00,,,0.00,WeatherCatV1.14B232,2013-03-19 19:24:00,
2013-03-19 14:30:00,44.5,17.2,30.08,South,190,1.0,11.0,33,0.00,,,0.00,WeatherCatV1.14B232,2013-03-19 19:30:00,
2013-03-19 14:35:00,45.1,16.3,30.08,SW,220,7.0,16.0,31,0.00,,,0.00,WeatherCatV1.14B232,2013-03-19 19:35:00,
2013-03-19 14:40:00,45.5,17.4,30.08,SSW,192,13.0,13.0,32,0.00,,,0.00,WeatherCatV1.14B232,2013-03-19 19:40:00,
2013-03-19 14:45:00,46.0,17.8,30.07,SSW,200,9.0,10.0,32,0.00,,,0.00,WeatherCatV1.14B232,2013-03-19 19:45:00,
2013-03-19 14:50:00,46.4,17.4,30.07,SW,225,2.0,5.0,31,0.00,,,0.00,WeatherCatV1.14B232,2013-03-19 19:50:00,
2013-03-19 14:55:00,46.8,17.0,30.07,SSW,194,5.0,10.0,30,0.00,,,0.00,WeatherCatV1.14B232,2013-03-19 19:55:00,
2013-03-19 15:00:00,47.0,17.2,30.07,SSW,213,9.0,9.0,30,0.00,,,0.00,WeatherCatV1.14B232,2013-03-19 20:00:00,
2013-03-19 15:05:00,47.3,16.7,30.07,SSW,195,0.0,4.0,29,0.00,,,0.00,WeatherCatV1.14B232,2013-03-19 20:05:00,
2013-03-19 15:10:00,47.9,18.7,30.07,WSW,238,9.0,9.0,31,0.00,,,0.00,WeatherCatV1.14B232,2013-03-19 20:10:00,
2013-03-19 15:15:00,48.2,16.6,30.05,SW,219,1.0,6.0,28,0.00,,,0.00,WeatherCatV1.14B232,2013-03-19 20:15:00,
2013-03-19 15:20:00,48.3,16.7,30.05,South,179,11.0,11.0,28,0.00,,,0.00,WeatherCatV1.14B232,2013-03-19 20:20:00,
2013-03-19 15:25:00,48.5,17.7,30.05,SW,221,5.0,12.0,29,0.00,,,0.00,WeatherCatV1.14B232,2013-03-19 20:25:00,
2013-03-19 15:30:00,48.9,17.2,30.05,WSW,250,4.0,15.0,28,0.00,,,0.00,WeatherCatV1.14B232,2013-03-19 20:30:00,
2013-03-19 15:35:00,49.2,17.5,30.05,West,268,4.0,6.0,28,0.00,,,0.00,WeatherCatV1.14B232,2013-03-19 20:35:00,
2013-03-19 15:40:00,49.5,17.8,30.05,NW,324,7.0,7.0,28,0.00,,,0.00,WeatherCatV1.14B232,2013-03-19 20:40:00,
2013-03-19 15:45:00,49.5,17.8,30.04,West,263,5.0,9.0,28,0.00,,,0.00,WeatherCatV1.14B232,2013-03-19 20:45:00,
2013-03-19 15:50:00,49.6,17.9,30.04,WNW,287,0.0,6.0,28,0.00,,,0.00,WeatherCatV1.14B232,2013-03-19 20:50:00,
2013-03-19 15:55:00,50.1,18.3,30.04,West,279,4.0,5.0,28,0.00,,,0.00,WeatherCatV1.14B232,2013-03-19 20:55:00,
2013-03-19 16:00:00,50.2,18.4,30.03,NW,322,3.0,7.0,28,0.00,,,0.00,WeatherCatV1.14B232,2013-03-19 21:00:00,
2013-03-19 16:05:00,50.1,17.4,30.03,NNW,332,0.0,6.0,27,0.00,,,0.00,WeatherCatV1.14B232,2013-03-19 21:05:00,
2013-03-19 16:10:00,49.4,16.8,30.03,West,275,6.0,10.0,27,0.00,,,0.00,WeatherCatV1.14B232,2013-03-19 21:10:00,
2013-03-19 16:15:00,48.9,16.4,30.04,NW,309,2.0,4.0,27,0.00,,,0.00,WeatherCatV1.14B232,2013-03-19 21:15:00,
2013-03-19 16:20:00,49.1,16.6,30.04,NW,309,0.0,3.0,27,0.00,,,0.00,WeatherCatV1.14B232,2013-03-19 21:20:00,
2013-03-19 16:25:00,49.4,17.7,30.04,NNW,338,2.0,7.0,28,0.00,,,0.00,WeatherCatV1.14B232,2013-03-19 21:25:00,
2013-03-19 16:30:00,49.8,18.0,30.03,WSW,246,0.0,7.0,28,0.00,,,0.00,WeatherCatV1.14B232,2013-03-19 21:30:00,
2013-03-19 16:35:00,49.8,18.0,30.03,WSW,252,0.0,3.0,28,0.00,,,0.00,WeatherCatV1.14B232,2013-03-19 21:35:00,
2013-03-19 16:40:00,49.8,18.0,30.03,NW,309,4.0,4.0,28,0.00,,,0.00,WeatherCatV1.14B232,2013-03-19 21:40:00,
2013-03-19 16:45:00,49.4,18.5,30.04,NW,311,0.0,5.0,29,0.00,,,0.00,WeatherCatV1.14B232,2013-03-19 21:45:00,
2013-03-19 16:50:00,49.5,18.6,30.04,NW,310,2.0,3.0,29,0.00,,,0.00,WeatherCatV1.14B232,2013-03-19 21:50:00,
2013-03-19 16:55:00,49.8,18.0,30.04,WNW,300,0.0,1.0,28,0.00,,,0.00,WeatherCatV1.14B232,2013-03-19 21:55:00,
2013-03-19 17:00:00,49.8,18.8,30.03,WNW,299,0.0,3.0,29,0.00,,,0.00,WeatherCatV1.14B232,2013-03-19 22:00:00,
2013-03-19 17:05:00,50.1,19.1,30.03,WNW,292,0.0,4.0,29,0.00,,,0.00,WeatherCatV1.14B232,2013-03-19 22:05:00,
2013-03-19 17:10:00,50.4,18.5,30.03,West,274,5.0,6.0,28,0.00,,,0.00,WeatherCatV1.14B232,2013-03-19 22:10:00,
2013-03-19 17:15:00,50.5,17.8,30.03,WSW,248,2.0,7.0,27,0.00,,,0.00,WeatherCatV1.14B232,2013-03-19 22:15:00,
2013-03-19 17:20:00,50.7,18.8,30.03,North,350,9.0,14.0,28,0.00,,,0.00,WeatherCatV1.14B232,2013-03-19 22:20:00,
2013-03-19 17:25:00,50.5,18.6,30.03,West,273,0.0,5.0,28,0.00,,,0.00,WeatherCatV1.14B232,2013-03-19 22:25:00,
2013-03-19 17:30:00,51.0,13.5,30.04,West,280,3.0,5.0,22,0.00,,,0.00,WeatherCatV1.14B232,2013-03-19 22:30:00,
2013-03-19 17:35:00,51.3,14.8,30.04,NW,323,9.0,14.0,23,0.00,,,0.00,WeatherCatV1.14B232,2013-03-19 22:35:00,
2013-03-19 17:40:00,50.8,14.4,30.04,WSW,246,4.0,13.0,23,0.00,,,0.00,WeatherCatV1.14B232,2013-03-19 22:40:00,
2013-03-19 17:45:00,50.5,14.1,30.04,NW,317,14.0,14.0,23,0.00,,,0.00,WeatherCatV1.14B232,2013-03-19 22:45:00,
2013-03-19 17:50:00,50.2,12.8,30.04,WNW,294,9.0,11.0,22,0.00,,,0.00,WeatherCatV1.14B232,2013-03-19 22:50:00,
2013-03-19 17:55:00,50.1,15.7,30.04,NNW,327,4.0,10.0,25,0.00,,,0.00,WeatherCatV1.14B232,2013-03-19 22:55:00,
2013-03-19 18:00:00,49.5,15.2,30.05,NNW,327,6.0,22.0,25,0.00,,,0.00,WeatherCatV1.14B232,2013-03-19 23:00:00,
2013-03-19 18:05:00,49.1,15.7,30.05,NW,322,10.0,16.0,26,0.00,,,0.00,WeatherCatV1.14B232,2013-03-19 23:05:00,
2013-03-19 18:10:00,48.6,15.3,30.05,North,355,12.0,20.0,26,0.00,,,0.00,WeatherCatV1.14B232,2013-03-19 23:10:00,
2013-03-19 18:15:00,48.0,14.8,30.06,WNW,302,10.0,17.0,26,0.00,,,0.00,WeatherCatV1.14B232,2013-03-19 23:15:00,
2013-03-19 18:20:00,47.7,15.4,30.06,NNW,329,3.0,12.0,27,0.00,,,0.00,WeatherCatV1.14B232,2013-03-19 23:20:00,
2013-03-19 18:25:00,47.4,15.1,30.06,NNW,338,11.0,15.0,27,0.00,,,0.00,WeatherCatV1.14B232,2013-03-19 23:25:00,
2013-03-19 18:30:00,47.1,14.9,30.08,NNW,333,10.0,16.0,27,0.00,,,0.00,WeatherCatV1.14B232,2013-03-19 23:30:00,
2013-03-19 18:35:00,46.7,12.8,30.08,NW,317,4.0,17.0,25,0.00,,,0.00,WeatherCatV1.14B232,2013-03-19 23:35:00,
2013-03-19 18:40:00,46.5,12.6,30.08,WNW,298,12.0,13.0,25,0.00,,,0.00,WeatherCatV1.14B232,2013-03-19 23:40:00,
2013-03-19 18:45:00,46.2,14.1,30.08,NNW,344,12.0,19.0,27,0.00,,,0.00,WeatherCatV1.14B232,2013-03-19 23:45:00,
2013-03-19 18:50:00,46.1,14.8,30.08,NW,311,7.0,10.0,28,0.00,,,0.00,WeatherCatV1.14B232,2013-03-19 23:50:00,
2013-03-19 18:55:00,45.8,14.6,30.08,NNW,330,4.0,12.0,28,0.00,,,0.00,WeatherCatV1.14B232,2013-03-19 23:55:00,
2013-03-19 19:00:00,45.4,14.2,30.08,NW,323,5.0,15.0,28,0.00,,,0.00,WeatherCatV1.14B232,2013-03-20 00:00:00,
2013-03-19 19:05:00,44.9,13.8,30.08,NNW,331,6.0,12.0,28,0.00,,,0.00,WeatherCatV1.14B232,2013-03-20 00:05:00,
2013-03-19 19:10:00,44.5,13.4,30.08,NNW,335,8.0,13.0,28,0.00,,,0.00,WeatherCatV1.14B232,2013-03-20 00:10:00,
2013-03-19 19:15:00,44.2,12.4,30.09,NW,307,4.0,10.0,27,0.00,,,0.00,WeatherCatV1.14B232,2013-03-20 00:15:00,
2013-03-19 19:20:00,43.8,10.3,30.09,NNW,336,5.0,7.0,25,0.00,,,0.00,WeatherCatV1.14B232,2013-03-20 00:20:00,
2013-03-19 19:25:00,43.5,10.9,30.09,NNW,346,5.0,9.0,26,0.00,,,0.00,WeatherCatV1.14B232,2013-03-20 00:25:00,
2013-03-19 19:30:00,43.2,9.8,30.09,NNW,344,4.0,13.0,25,0.00,,,0.00,WeatherCatV1.14B232,2013-03-20 00:30:00,
2013-03-19 19:35:00,42.9,10.4,30.09,NNW,333,3.0,11.0,26,0.00,,,0.00,WeatherCatV1.14B232,2013-03-20 00:35:00,
2013-03-19 19:40:00,42.8,12.0,30.09,NW,322,10.0,14.0,28,0.00,,,0.00,WeatherCatV1.14B232,2013-03-20 00:40:00,
2013-03-19 19:45:00,42.5,12.5,30.10,NNW,333,5.0,11.0,29,0.00,,,0.00,WeatherCatV1.14B232,2013-03-20 00:45:00,
2013-03-19 19:50:00,42.2,17.2,30.10,NNE,25,5.0,13.0,36,0.00,,,0.00,WeatherCatV1.14B232,2013-03-20 00:50:00,
2013-03-19 19:55:00,41.9,19.4,30.10,North,355,0.0,12.0,40,0.00,,,0.00,WeatherCatV1.14B232,2013-03-20 00:55:00,
2013-03-19 20:00:00,41.5,19.6,30.11,North,0,2.0,12.0,41,0.00,,,0.00,WeatherCatV1.14B232,2013-03-20 01:00:00,
2013-03-19 20:05:00,41.1,20.3,30.11,NNW,338,6.0,12.0,43,0.00,,,0.00,WeatherCatV1.14B232,2013-03-20 01:05:00,
2013-03-19 20:10:00,40.6,20.4,30.11,North,355,3.0,11.0,44,0.00,,,0.00,WeatherCatV1.14B232,2013-03-20 01:10:00,
2013-03-19 20:15:00,40.2,20.6,30.12,NNW,344,5.0,10.0,45,0.00,,,0.00,WeatherCatV1.14B232,2013-03-20 01:15:00,
2013-03-19 20:20:00,39.9,20.8,30.12,NNW,346,2.0,10.0,46,0.00,,,0.00,WeatherCatV1.14B232,2013-03-20 01:20:00,
2013-03-19 20:25:00,39.5,20.5,30.12,NW,319,6.0,10.0,46,0.00,,,0.00,WeatherCatV1.14B232,2013-03-20 01:25:00,
2013-03-19 20:30:00,39.2,20.7,30.13,NW,323,9.0,11.0,47,0.00,,,0.00,WeatherCatV1.14B232,2013-03-20 01:30:00,
2013-03-19 20:35:00,38.9,20.4,30.13,NNW,345,5.0,9.0,47,0.00,,,0.00,WeatherCatV1.14B232,2013-03-20 01:35:00,
2013-03-19 20:40:00,38.5,20.0,30.13,NNW,336,7.0,10.0,47,0.00,,,0.00,WeatherCatV1.14B232,2013-03-20 01:40:00,
2013-03-19 20:45:00,38.3,20.4,30.14,NNW,340,1.0,9.0,48,0.00,,,0.00,WeatherCatV1.14B232,2013-03-20 01:45:00,
2013-03-19 20:50:00,38.0,20.1,30.14,NNW,332,9.0,9.0,48,0.00,,,0.00,WeatherCatV1.14B232,2013-03-20 01:50:00,
2013-03-19 20:55:00,37.9,20.5,30.14,NNW,338,3.0,13.0,49,0.00,,,0.00,WeatherCatV1.14B232,2013-03-20 01:55:00,
2013-03-19 21:00:00,37.8,20.8,30.15,NNW,340,10.0,10.0,50,0.00,,,0.00,WeatherCatV1.14B232,2013-03-20 02:00:00,
2013-03-19 21:05:00,37.5,20.1,30.15,North,11,5.0,17.0,49,0.00,,,0.00,WeatherCatV1.14B232,2013-03-20 02:05:00,
2013-03-19 21:10:00,37.5,19.6,30.15,North,0,10.0,11.0,48,0.00,,,0.00,WeatherCatV1.14B232,2013-03-20 02:10:00,
2013-03-19 21:15:00,37.2,19.8,30.16,NE,34,12.0,14.0,49,0.00,,,0.00,WeatherCatV1.14B232,2013-03-20 02:15:00,
2013-03-19 21:20:00,36.9,19.5,30.16,NNW,333,5.0,21.0,49,0.00,,,0.00,WeatherCatV1.14B232,2013-03-20 02:20:00,
2013-03-19 21:25:00,36.5,19.6,30.16,NNW,346,8.0,16.0,50,0.00,,,0.00,WeatherCatV1.14B232,2013-03-20 02:25:00,
2013-03-19 21:30:00,36.0,18.7,30.17,NNW,333,12.0,15.0,49,0.00,,,0.00,WeatherCatV1.14B232,2013-03-20 02:30:00,
2013-03-19 21:35:00,35.6,18.8,30.17,NNE,15,13.0,16.0,50,0.00,,,0.00,WeatherCatV1.14B232,2013-03-20 02:35:00,
2013-03-19 21:40:00,35.3,18.5,30.17,NNW,337,13.0,13.0,50,0.00,,,0.00,WeatherCatV1.14B232,2013-03-20 02:40:00,
2013-03-19 21:45:00,35.0,17.8,30.18,NNW,348,8.0,12.0,49,0.00,,,0.00,WeatherCatV1.14B232,2013-03-20 02:45:00,
2013-03-19 21:50:00,34.7,17.5,30.18,NW,326,3.0,11.0,49,0.00,,,0.00,WeatherCatV1.14B232,2013-03-20 02:50:00,
2013-03-19 21:55:00,34.4,17.2,30.18,NNW,339,9.0,17.0,49,0.00,,,0.00,WeatherCatV1.14B232,2013-03-20 02:55:00,
2013-03-19 22:00:00,34.1,17.0,30.19,NNW,338,9.0,17.0,49,0.00,,,0.00,WeatherCatV1.14B232,2013-03-20 03:00:00,
2013-03-19 22:05:00,33.8,16.7,30.19,NNW,328,3.0,16.0,49,0.00,,,0.00,WeatherCatV1.14B232,2013-03-20 03:05:00,
2013-03-19 22:10:00,33.5,16.9,30.19,NW,325,11.0,16.0,50,0.00,,,0.00,WeatherCatV1.14B232,2013-03-20 03:10:00,
2013-03-19 22:15:00,33.2,17.1,30.20,NNW,348,7.0,13.0,51,0.00,,,0.00,WeatherCatV1.14B232,2013-03-20 03:15:00,
2013-03-19 22:20:00,32.9,17.2,30.20,NNW,345,8.0,15.0,52,0.00,,,0.00,WeatherCatV1.14B232,2013-03-20 03:20:00,
2013-03-19 22:25:00,32.7,17.0,30.20,North,9,7.0,12.0,52,0.00,,,0.00,WeatherCatV1.14B232,2013-03-20 03:25:00,
2013-03-19 22:30:00,32.4,17.2,30.21,North,0,9.0,15.0,53,0.00,,,0.00,WeatherCatV1.14B232,2013-03-20 03:30:00,
2013-03-19 22:35:00,32.1,17.4,30.21,North,350,10.0,16.0,54,0.00,,,0.00,WeatherCatV1.14B232,2013-03-20 03:35:00,
2013-03-19 22:41:00,31.8,17.5,30.21,North,355,9.0,9.0,55,0.00,,,0.00,WeatherCatV1.14B232,2013-03-20 03:41:00,
2013-03-19 22:46:00,31.5,17.6,30.23,NNW,345,3.0,15.0,56,0.00,,,0.00,WeatherCatV1.14B232,2013-03-20 03:46:00,
2013-03-19 22:51:00,31.0,17.6,30.23,NNW,348,9.0,13.0,57,0.00,,,0.00,WeatherCatV1.14B232,2013-03-20 03:51:00,
2013-03-19 22:56:00,30.7,17.7,30.23,NNW,347,5.0,11.0,58,0.00,,,0.00,WeatherCatV1.14B232,2013-03-20 03:56:00,
2013-03-19 23:00:00,30.6,17.6,30.23,NW,321,5.0,17.0,58,0.00,,,0.00,WeatherCatV1.14B232,2013-03-20 04:00:00,
2013-03-19 23:01:00,30.4,17.4,30.23,NW,323,4.0,17.0,58,0.00,,,0.00,WeatherCatV1.14B232,2013-03-20 04:01:00,
2013-03-19 23:06:00,30.1,17.1,30.23,NNW,337,10.0,16.0,58,0.00,,,0.00,WeatherCatV1.14B232,2013-03-20 04:06:00,
2013-03-19 23:11:00,30.0,16.6,30.23,NW,315,10.0,13.0,57,0.00,,,0.00,WeatherCatV1.14B232,2013-03-20 04:11:00,
2013-03-19 23:16:00,29.8,16.0,30.24,North,350,2.0,11.0,56,0.00,,,0.00,WeatherCatV1.14B232,2013-03-20 04:16:00,
2013-03-19 23:21:00,29.4,14.4,30.24,WNW,303,3.0,13.0,53,0.00,,,0.00,WeatherCatV1.14B232,2013-03-20 04:21:00,
2013-03-19 23:26:00,29.1,13.7,30.24,NNW,335,6.0,11.0,52,0.00,,,0.00,WeatherCatV1.14B232,2013-03-20 04:26:00,
2013-03-19 23:31:00,29.0,13.6,30.25,WNW,284,3.0,13.0,52,0.00,,,0.00,WeatherCatV1.14B232,2013-03-20 04:31:00,
2013-03-19 23:36:00,28.8,13.9,30.25,NNW,343,10.0,15.0,53,0.00,,,0.00,WeatherCatV1.14B232,2013-03-20 04:36:00,
2013-03-19 23:41:00,28.7,13.8,30.25,NNW,346,13.0,20.0,53,0.00,,,0.00,WeatherCatV1.14B232,2013-03-20 04:41:00,
2013-03-19 23:46:00,28.4,13.9,30.26,NNW,328,7.0,11.0,54,0.00,,,0.00,WeatherCatV1.14B232,2013-03-20 04:46:00,
2013-03-19 23:51:00,28.2,14.1,30.26,NW,325,4.0,10.0,55,0.00,,,0.00,WeatherCatV1.14B232,2013-03-20 04:51:00,
2013-03-19 23:56:00,27.8,11.6,30.26,North,349,16.0,19.0,50,0.00,,,0.00,WeatherCatV1.14B232,2013-03-20 04:56:00,